sat.trackr.live / text

‹ back to catalog

STARLINK-34570

NORAD 64860 · 2025-152U

PAYLOAD ACTIVE UNKNOWN

§ Identity

Operator
Country
US
Launch date
2025-07-19
Launch site
AFWTR
Launch vehicle
Mass (kg)
RCS (m²)

Purposes: comms

External: N2YO · Heavens-Above · Gunter

§ Orbital elements

Epoch: 2026-05-25T02:44:23.292672Z

Period
95.64 min
Inclination
97.4474°
Eccentricity
0.0002653
Mean motion
15.05657661 rev/d
Perigee alt
547.6 km
Apogee alt
551.3 km
Semi-major
6,927.6 km
B*
1.1235e-4
RAAN
0.4148°
Arg perigee
89.2180°
Mean anomaly
270.9351°
Rev number
4,691

§ Raw data

STARLINK-345701 64860U 25152U   26145.11415848  .00001563  00000+0  11235-3 0  99982 64860  97.4474   0.4148 0002653  89.2180 270.9351 15.05657661 46911

JSON: /api/v1/satellites/64860 · /tle

For live sub-satellite position, see the globe view (requires WebGL).

§ Visibility from observer

Set your observer location to see the next 7 days of passes ≥ 10°. The values pass through the URL so the page stays shareable.

No JS? Fill the form by hand. The geolocation button needs JavaScript.